Wind_Speed
30 30 30 30 29 28 27 27 27 27 27 27 26 26 26 28 28 28 28 28 29 29 30 30 30 30 30 31 31 32 33 33 34 35 36 37 37 38 38 39 39 39 40
31 31 31 31 31 30 30 29 28 28 28 29 28 28 28 28 29 28 29 29 29 29 30 31 31 31 32 32 33 34 34 35 36 37 38 38 39 39 40 41 41 41 41
32 33 33 33 33 32 32 32 31 31 30 30 30 30 30 29 29 30 30 30 30 30 31 32 32 33 33 34 35 35 36 37 38 39 39 40 41 42 42 42 42 42 42
34 33 34 34 34 34 34 34 34 34 34 33 32 32 31 31 31 31 31 31 32 32 32 33 33 34 34 35 36 37 38 38 40 41 42 42 43 42 42 43 43 43 43
34 34 34 35 35 35 36 36 36 36 36 35 35 34 33 33 33 32 32 33 33 34 34 34 34 34 35 36 36 38 39 40 41 42 43 44 43 43 43 43 44 44 44
36 36 36 37 37 37 37 38 38 37 37 37 37 36 35 35 35 34 34 35 35 35 35 35 35 35 36 37 38 39 40 42 43 43 44 44 44 44 44 44 44 44 45
39 39 39 38 38 38 39 39 38 38 38 38 38 37 37 37 37 36 36 36 36 36 36 36 36 36 37 38 39 40 42 43 43 44 44 44 44 45 45 45 45 45 46
40 40 41 41 40 39 38 39 39 39 39 38 38 39 38 38 38 38 38 37 37 37 37 37 37 38 39 39 40 41 42 43 43 44 44 45 45 45 45 45 45 45 46
41 42 42 42 41 41 40 39 39 39 39 39 40 40 40 39 38 38 38 39 38 38 38 38 37 39 40 41 42 42 42 43 44 44 44 44 44 44 44 44 45 46 47
44 43 42 42 42 43 42 40 40 40 40 40 40 40 40 40 39 39 39 39 39 39 39 39 40 40 41 42 42 42 43 43 43 43 43 44 45 44 45 46 46 47 47
44 44 44 44 43 42 42 42 41 40 40 41 41 40 40 40 40 40 40 39 39 40 40 41 41 41 41 42 42 42 43 43 42 42 43 44 45 46 46 46 47 47 48
44 44 43 44 43 42 42 42 41 39 39 39 39 39 39 41 40 40 39 40 39 40 41 42 42 41 41 41 41 42 43 43 42 42 43 44 44 46 46 46 47 48 48
45 44 44 44 44 43 42 42 41 40 40 39 39 39 39 40 40 39 39 39 40 40 41 42 41 41 42 42 42 43 43 42 43 43 43 44 45 46 46 46 46 47 46
45 46 45 44 43 43 42 41 40 40 40 40 39 38 38 39 39 39 39 39 39 40 41 41 41 41 42 42 43 43 43 43 43 44 45 46 46 46 46 45 46 46 45
45 45 45 44 44 43 42 41 41 42 42 40 39 39 38 38 39 39 39 39 38 38 39 40 40 41 41 42 44 43 43 43 44 45 46 46 46 45 45 45 45 44 43
47 46 44 43 43 42 42 42 42 42 41 40 39 39 39 39 39 38 37 37 38 38 37 38 39 41 42 43 43 44 43 44 45 45 46 45 46 44 45 45 44 43 42
46 46 45 44 43 41 41 41 42 42 42 41 40 39 39 38 37 37 37 37 38 38 37 37 39 40 42 43 43 44 44 44 45 45 45 45 45 44 44 44 44 43 42
46 45 45 45 43 42 41 41 41 41 41 41 40 39 39 38 38 38 38 38 39 39 39 39 39 40 41 42 43 43 43 44 44 45 45 44 44 44 44 44 43 42 40
45 44 45 45 44 43 42 41 41 41 42 42 41 40 40 38 38 37 38 39 40 39 39 39 39 40 41 42 43 42 42 43 44 44 44 43 43 43 43 42 41 39 38
45 46 45 45 45 42 42 42 42 41 41 41 41 41 40 39 39 38 39 40 40 39 39 39 40 40 41 42 42 42 42 43 43 43 43 42 42 42 41 40 38 37 37
43 44 44 44 44 43 41 41 41 41 41 41 41 41 40 40 40 39 40 40 39 38 38 39 40 41 41 42 42 41 42 42 42 41 41 41 40 40 39 38 37 37 38
41 42 43 42 42 41 42 41 40 41 40 40 40 41 40 40 39 40 40 38 38 38 39 39 39 40 40 41 41 40 40 40 40 39 39 39 38 37 37 38 38 38 38
40 40 40 41 40 41 41 42 41 39 39 39 39 39 40 40 40 40 39 38 38 39 39 39 39 39 39 39 40 40 39 38 38 37 37 36 36 36 37 38 37 37 37
39 39 40 40 40 41 41 41 40 39 39 39 38 38 37 38 39 39 39 39 39 39 39 38 38 38 38 38 38 38 38 37 35 35 35 33 33 34 36 36 36 36 36
39 39 39 39 39 39 39 39 40 39 39 39 38 38 37 37 38 39 39 38 38 38 38 38 37 36 36 36 36 36 36 35 34 34 34 33 33 34 34 34 35 34 34
38 38 37 37 37 37 37 37 37 39 39 38 37 37 37 37 37 37 38 38 37 37 36 36 36 34 34 34 34 35 35 34 33 34 34 34 34 35 34 33 33 33 33
Wind_Direction
254 256 257 258 261 263 264 266 267 270 273 276 279 284 288 290 291 293 296 299 301 302 303 304 305 305 305 305 305 305 306 306 306 306 306 305 305 305 304 302 301 300 300
254 256 257 259 260 262 262 264 266 269 271 274 276 280 285 289 290 292 295 297 299 301 302 303 304 305 304 304 305 305 305 305 306 306 305 305 304 304 303 302 301 301 300
255 256 258 259 260 261 262 263 265 268 271 273 274 277 281 285 288 291 293 295 297 299 301 302 303 303 304 303 304 305 305 304 305 305 305 305 304 304 303 302 301 301 300
255 257 259 260 261 262 262 263 265 268 270 272 274 276 279 283 287 290 292 294 295 297 300 301 301 302 303 304 304 304 305 305 304 304 304 305 304 303 302 302 302 301 300
256 257 259 261 262 263 263 264 266 268 270 272 274 275 278 281 285 289 291 293 295 296 298 299 300 301 302 303 304 305 305 305 305 304 304 305 304 303 302 302 302 301 300
257 259 261 262 263 263 264 265 266 268 271 271 272 274 277 279 282 286 290 292 294 295 296 296 298 299 300 302 303 305 306 306 305 305 304 304 303 302 301 301 302 301 301
257 259 261 263 264 264 264 264 265 267 270 271 272 274 277 280 282 284 287 291 292 294 295 295 296 298 299 301 303 305 306 307 306 305 304 304 303 303 302 301 302 302 302
257 260 262 263 264 264 264 264 264 266 269 270 272 274 277 278 280 283 286 289 290 292 293 294 297 298 300 301 302 304 306 307 307 307 305 305 304 304 303 302 302 302 302
258 260 262 263 264 264 264 264 265 266 268 269 271 274 276 278 279 281 285 287 289 290 291 293 297 299 300 301 301 303 306 307 307 306 306 306 305 305 304 303 302 302 302
260 260 262 263 263 263 264 265 264 267 269 271 271 273 276 276 279 281 283 286 288 289 291 293 295 298 301 302 303 303 305 307 308 307 307 307 306 306 305 304 304 303 303
260 259 262 262 263 264 265 265 267 267 270 272 272 273 274 276 279 280 282 284 286 289 290 292 295 297 300 303 304 305 306 307 308 307 307 307 307 306 306 306 305 304 304
260 260 260 259 261 264 266 265 265 267 270 271 271 273 274 276 278 280 281 283 285 289 291 293 294 296 298 300 304 306 307 307 307 307 307 308 308 308 307 306 306 305 305
258 259 260 259 262 264 264 265 265 265 267 268 270 272 273 275 277 280 281 282 284 287 290 293 294 295 297 298 302 305 306 307 307 307 308 309 309 308 307 307 307 307 307
258 258 259 261 263 265 265 266 266 265 266 268 270 271 273 275 276 278 280 283 286 287 288 291 293 295 297 298 301 303 304 305 306 307 308 309 309 308 307 308 308 308 308
260 259 260 262 264 265 267 267 267 266 267 269 270 270 272 274 276 277 280 283 285 287 288 289 291 294 296 298 301 302 303 304 306 307 308 309 309 308 308 308 309 309 309
260 259 259 261 263 263 265 267 267 266 266 268 270 270 272 274 274 275 279 283 285 286 288 289 291 293 295 298 300 301 302 304 306 307 308 308 309 309 309 309 309 310 310
261 260 260 261 262 263 263 265 266 265 265 267 269 270 270 272 273 275 278 282 285 287 289 290 292 294 295 297 299 300 302 304 305 306 307 309 309 309 310 310 311 310 309
260 261 260 260 260 260 260 262 264 265 266 266 268 268 269 271 274 275 278 280 284 287 289 291 293 294 296 297 300 301 303 305 306 307 308 309 309 310 310 310 311 310 310
260 260 261 261 261 260 260 261 264 265 264 265 266 267 269 271 272 275 277 280 283 286 288 290 293 296 296 298 299 301 302 304 306 307 308 308 309 311 311 311 312 312 311
260 261 260 261 261 261 261 262 263 264 263 264 265 266 268 270 272 274 277 279 282 284 286 288 292 295 296 298 299 300 301 303 305 307 308 308 309 311 311 311 312 312 311
258 260 260 260 261 262 262 262 263 262 262 263 264 265 267 269 272 274 276 279 281 284 285 287 290 293 295 298 299 301 302 304 306 307 308 308 309 310 311 311 311 311 311
258 259 258 259 261 261 261 263 264 263 264 264 264 265 266 269 271 274 275 277 280 283 285 287 290 293 295 298 300 302 304 305 307 307 308 309 310 311 310 309 309 309 310
255 256 258 258 258 259 259 261 262 262 261 263 265 265 266 268 271 272 274 278 281 283 285 288 292 294 296 298 301 303 306 308 308 308 309 309 310 311 310 309 309 309 310
255 256 257 258 258 258 257 258 258 260 261 262 263 264 266 267 269 271 275 277 279 282 285 288 292 295 297 300 303 305 307 308 309 309 310 309 310 311 311 310 309 309 310
254 255 256 257 257 257 258 258 259 260 262 262 264 265 266 268 270 273 275 276 279 283 287 290 293 296 298 301 304 306 307 308 308 308 310 310 311 312 312 312 312 311 311
255 256 256 255 256 256 257 259 261 261 262 262 263 265 268 270 272 274 276 277 279 283 285 289 292 296 299 302 304 304 305 306 307 308 310 311 312 313 313 314 315 315 315
Height
5813 5814 5815 5816 5817 5818 5819 5819 5820 5820 5820 5820 5819 5819 5818 5816 5815 5814 5812 5810 5808 5806 5804 5801 5799 5796 5793 5791 5788 5785 5782 5778 5775 5771 5768 5764 5760 5756 5752 5748 5745 5741 5737
5806 5807 5809 5810 5810 5811 5812 5813 5813 5813 5813 5814 5813 5813 5812 5811 5809 5808 5806 5804 5802 5800 5798 5795 5793 5790 5787 5784 5781 5778 5775 5771 5767 5764 5760 5756 5752 5747 5743 5739 5735 5731 5728
5798 5800 5801 5802 5803 5804 5805 5805 5806 5806 5806 5807 5806 5806 5805 5804 5803 5802 5800 5798 5796 5793 5791 5789 5786 5783 5781 5778 5774 5771 5767 5764 5760 5756 5751 5747 5743 5738 5734 5730 5725 5721 5717
5791 5792 5794 5795 5795 5796 5797 5797 5798 5799 5799 5799 5799 5799 5798 5798 5796 5795 5793 5791 5789 5787 5784 5782 5779 5776 5773 5770 5767 5763 5759 5755 5751 5747 5743 5738 5733 5729 5724 5720 5715 5711 5707
5783 5785 5786 5786 5787 5787 5788 5789 5790 5790 5791 5791 5791 5791 5791 5790 5789 5788 5786 5784 5782 5780 5777 5774 5771 5769 5766 5763 5759 5755 5751 5747 5742 5738 5733 5728 5723 5719 5714 5710 5705 5701 5696
5775 5777 5777 5778 5778 5778 5779 5780 5781 5782 5782 5783 5783 5783 5783 5782 5782 5780 5778 5776 5774 5772 5770 5767 5764 5761 5758 5755 5751 5747 5742 5737 5733 5728 5723 5718 5713 5709 5704 5700 5695 5690 5686
5767 5768 5768 5769 5769 5769 5770 5770 5771 5772 5773 5774 5774 5774 5774 5774 5773 5772 5770 5768 5766 5764 5762 5759 5756 5753 5750 5747 5742 5738 5734 5728 5723 5718 5712 5708 5703 5698 5694 5689 5684 5679 5675
5758 5759 5759 5759 5760 5760 5760 5761 5762 5763 5764 5765 5765 5765 5766 5766 5765 5763 5762 5760 5758 5756 5754 5751 5748 5745 5742 5738 5734 5729 5724 5719 5714 5708 5702 5697 5693 5687 5683 5678 5673 5668 5663
5748 5749 5750 5750 5751 5751 5752 5753 5753 5754 5755 5755 5756 5756 5756 5756 5756 5755 5754 5752 5749 5747 5745 5742 5739 5736 5733 5729 5724 5720 5715 5709 5704 5698 5693 5687 5682 5677 5672 5667 5662 5657 5652
5738 5739 5740 5741 5742 5742 5743 5744 5745 5745 5745 5746 5746 5746 5746 5746 5746 5746 5745 5743 5741 5738 5736 5733 5730 5727 5723 5719 5715 5710 5705 5700 5695 5689 5684 5678 5673 5667 5662 5656 5651 5646 5641
5728 5729 5730 5731 5732 5733 5734 5735 5735 5736 5736 5736 5737 5737 5737 5737 5736 5736 5736 5734 5732 5729 5727 5724 5721 5718 5714 5710 5706 5701 5696 5691 5686 5680 5675 5669 5663 5657 5651 5646 5640 5635 5630
5718 5719 5720 5721 5722 5724 5725 5726 5726 5727 5727 5727 5728 5728 5728 5728 5727 5726 5726 5725 5723 5720 5717 5714 5711 5708 5705 5701 5697 5692 5687 5682 5677 5671 5666 5660 5653 5647 5641 5635 5630 5624 5618
5708 5709 5710 5711 5712 5714 5715 5716 5717 5718 5718 5718 5719 5719 5719 5718 5718 5717 5716 5715 5714 5711 5708 5705 5702 5699 5696 5692 5688 5683 5678 5673 5667 5662 5656 5650 5644 5638 5631 5626 5620 5614 5608
5698 5699 5700 5702 5703 5704 5705 5706 5707 5708 5709 5709 5709 5709 5709 5709 5708 5708 5707 5706 5705 5703 5700 5697 5693 5690 5687 5683 5679 5674 5669 5664 5658 5653 5647 5641 5634 5628 5622 5616 5610 5604 5597
5686 5688 5690 5691 5693 5694 5695 5696 5697 5698 5699 5699 5699 5700 5699 5699 5698 5698 5697 5696 5695 5694 5692 5688 5685 5681 5677 5674 5670 5665 5660 5655 5649 5643 5637 5631 5625 5618 5612 5606 5600 5594 5588
5675 5677 5679 5681 5682 5684 5685 5686 5687 5687 5688 5689 5689 5689 5689 5689 5689 5689 5688 5686 5685 5683 5682 5679 5676 5672 5668 5664 5660 5656 5651 5646 5640 5634 5628 5622 5615 5609 5603 5596 5590 5584 5579
5663 5665 5667 5669 5671 5673 5674 5675 5676 5677 5678 5679 5679 5680 5680 5680 5680 5679 5678 5677 5676 5674 5672 5670 5667 5663 5659 5655 5651 5646 5641 5636 5631 5624 5618 5612 5605 5599 5593 5587 5581 5575 5569
5652 5654 5656 5658 5660 5662 5663 5664 5665 5666 5667 5668 5669 5670 5670 5670 5670 5670 5669 5668 5667 5665 5663 5661 5657 5654 5650 5646 5642 5637 5632 5626 5621 5615 5609 5602 5596 5590 5584 5578 5572 5566 5561
5640 5642 5644 5646 5648 5650 5652 5653 5654 5656 5657 5658 5659 5660 5661 5661 5661 5661 5660 5659 5657 5655 5653 5651 5648 5645 5641 5637 5632 5627 5622 5617 5611 5605 5599 5593 5587 5580 5574 5568 5563 5557 5552
5628 5630 5633 5635 5637 5639 5641 5642 5643 5645 5646 5647 5649 5650 5650 5651 5651 5651 5650 5649 5648 5646 5643 5641 5639 5636 5632 5627 5623 5618 5614 5608 5603 5596 5590 5584 5578 5572 5566 5560 5555 5550 5544
5617 5619 5621 5623 5625 5627 5629 5631 5632 5634 5635 5637 5638 5639 5640 5641 5641 5641 5640 5639 5638 5636 5634 5632 5630 5627 5623 5618 5614 5609 5604 5599 5593 5587 5582 5575 5570 5564 5558 5552 5547 5542 5536
5606 5608 5609 5611 5614 5616 5618 5620 5621 5623 5625 5626 5628 5629 5630 5630 5631 5631 5630 5629 5628 5627 5625 5623 5620 5617 5613 5609 5604 5599 5595 5590 5585 5580 5574 5568 5562 5556 5550 5545 5539 5534 5528
5594 5596 5598 5601 5603 5605 5607 5609 5611 5613 5614 5616 5618 5619 5620 5620 5621 5621 5620 5619 5618 5617 5615 5613 5611 5607 5604 5600 5595 5591 5586 5580 5575 5570 5565 5560 5554 5548 5542 5536 5531 5526 5520
5584 5586 5588 5590 5592 5595 5597 5599 5601 5603 5605 5606 5608 5609 5609 5610 5611 5610 5610 5609 5608 5607 5606 5604 5601 5598 5594 5590 5586 5581 5577 5572 5567 5561 5556 5552 5547 5541 5535 5529 5523 5517 5512
5574 5576 5578 5580 5582 5584 5586 5588 5590 5593 5595 5596 5597 5598 5599 5600 5601 5601 5601 5600 5599 5598 5596 5594 5591 5588 5584 5581 5577 5573 5569 5564 5560 5555 5549 5544 5539 5534 5529 5522 5515 5509 5503
5563 5566 5568 5570 5572 5574 5576 5578 5580 5583 5585 5586 5588 5589 5589 5590 5590 5590 5591 5590 5590 5589 5587 5585 5583 5580 5576 5572 5568 5564 5560 5556 5551 5547 5542 5537 5531 5526 5521 5516 5509 5502 5496